• In Russia
  • List of Countries
  • For 7 days
  • Water Temperature
  • Satellite Maps
  • Weather Map
  • Weather Widgets
  • user-avatar
    Login

    Hourly Weather Wien

    Today, 23 May, Tuesday

    Time Temperature Precipitation Wind Pressure Humidity
    00:00 +14°C° 0.1 mm 1 mps 744 mmHg 91%
    01:00 +14°C° 0 mm 1 mps 743 mmHg 90%
    02:00 +14°C° 0.1 mm 1 mps 743 mmHg 90%
    03:00 +13°C° 0.1 mm 1 mps 743 mmHg 90%
    04:00 +13°C° 0.1 mm 1 mps 743 mmHg 91%
    05:00 +15°C° 0 mm 1 mps 743 mmHg 86%
    06:00 +16°C° 0 mm 1 mps 744 mmHg 82%
    07:00 +19°C° 0 mm 1 mps 744 mmHg 78%
    08:00 +21°C° 0.1 mm 1 mps 744 mmHg 72%
    09:00 +21°C° 0.1 mm 2 mps 744 mmHg 66%
    10:00 +22°C° 0.1 mm 3 mps 744 mmHg 60%
    11:00 +24°C° 0.2 mm 3 mps 744 mmHg 58%
    12:00 +25°C° 0.2 mm 3 mps 744 mmHg 55%
    13:00 +25°C° 0.2 mm 3 mps 743 mmHg 53%
    14:00 +25°C° 0.5 mm 3 mps 743 mmHg 56%
    15:00 +25°C° 0.5 mm 4 mps 743 mmHg 59%
    16:00 +23°C° 0.5 mm 4 mps 743 mmHg 62%
    17:00 +22°C° 0.8 mm 4 mps 743 mmHg 68%
    18:00 +20°C° 0.8 mm 3 mps 743 mmHg 75%
    19:00 +19°C° 0.8 mm 3 mps 743 mmHg 81%
    20:00 +18°C° 0.3 mm 3 mps 743 mmHg 83%
    21:00 +17°C° 0.3 mm 3 mps 743 mmHg 85%
    22:00 +15°C° 0.3 mm 4 mps 743 mmHg 87%
    23:00 +15°C° 0.1 mm 4 mps 743 mmHg 87%

    Tomorrow, 24 May, Wednesday

    Time Temperature Precipitation Wind Pressure Humidity
    00:00 +15°C° 0.1 mm 4 mps 743 mmHg 87%
    01:00 +15°C° 0.1 mm 4 mps 743 mmHg 87%
    02:00 +15°C° 0.2 mm 4 mps 743 mmHg 88%
    03:00 +14°C° 0.2 mm 4 mps 743 mmHg 89%
    04:00 +14°C° 0.2 mm 4 mps 743 mmHg 90%
    05:00 +15°C° 0.1 mm 5 mps 743 mmHg 88%
    06:00 +16°C° 0.1 mm 5 mps 743 mmHg 86%
    07:00 +16°C° 0.1 mm 6 mps 744 mmHg 84%
    08:00 +16°C° 0.2 mm 7 mps 744 mmHg 80%
    09:00 +17°C° 0.2 mm 7 mps 744 mmHg 77%
    10:00 +17°C° 0.2 mm 7 mps 744 mmHg 74%
    11:00 +17°C° 0 mm 8 mps 744 mmHg 66%
    12:00 +18°C° 0 mm 8 mps 745 mmHg 58%
    13:00 +20°C° 0 mm 8 mps 745 mmHg 51%
    14:00 +18°C° 0 mm 8 mps 745 mmHg 52%
    15:00 +18°C° 0 mm 8 mps 745 mmHg 54%
    16:00 +17°C° 0 mm 8 mps 745 mmHg 56%
    17:00 +16°C° 0 mm 7 mps 745 mmHg 61%
    18:00 +15°C° 0 mm 6 mps 745 mmHg 65%
    19:00 +14°C° 0 mm 5 mps 745 mmHg 70%
    20:00 +13°C° 0 mm 5 mps 745 mmHg 73%
    21:00 +12°C° 0 mm 4 mps 746 mmHg 77%
    22:00 +11°C° 0 mm 4 mps 746 mmHg 80%
    23:00 +11°C° 0 mm 4 mps 746 mmHg 81%

    Day after tomorrow, 25 May, Thursday

    Time Temperature Precipitation Wind Pressure Humidity
    00:00 +11°C° 0 mm 4 mps 746 mmHg 82%
    01:00 +11°C° 0 mm 4 mps 746 mmHg 83%
    02:00 +11°C° 0 mm 4 mps 745 mmHg 85%
    03:00 +10°C° 0 mm 4 mps 745 mmHg 87%
    04:00 +10°C° 0 mm 4 mps 745 mmHg 89%
    05:00 +11°C° 0 mm 4 mps 745 mmHg 86%
    06:00 +12°C° 0 mm 4 mps 745 mmHg 83%
    07:00 +14°C° 0 mm 5 mps 745 mmHg 80%
    08:00 +14°C° 0.2 mm 5 mps 745 mmHg 78%
    09:00 +15°C° 0.2 mm 5 mps 744 mmHg 76%
    10:00 +16°C° 0.2 mm 6 mps 744 mmHg 73%
    11:00 +17°C° 0.3 mm 6 mps 744 mmHg 72%
    12:00 +17°C° 0.3 mm 6 mps 744 mmHg 70%
    13:00 +18°C° 0.3 mm 7 mps 744 mmHg 68%
    14:00 +18°C° 0.2 mm 7 mps 744 mmHg 68%
    15:00 +18°C° 0.2 mm 7 mps 743 mmHg 68%
    16:00 +17°C° 0.2 mm 7 mps 743 mmHg 67%
    17:00 +16°C° 0 mm 6 mps 743 mmHg 70%
    18:00 +15°C° 0 mm 5 mps 743 mmHg 74%
    19:00 +14°C° 0 mm 4 mps 743 mmHg 77%
    20:00 +13°C° 0 mm 4 mps 743 mmHg 79%
    21:00 +13°C° 0 mm 4 mps 744 mmHg 81%
    22:00 +12°C° 0 mm 3 mps 744 mmHg 83%
    23:00 +12°C° 0 mm 3 mps 744 mmHg 85%

    26 May, Friday

    Time Temperature Precipitation Wind Pressure Humidity
    00:00 +11°C° 0 mm 3 mps 744 mmHg 87%
    01:00 +11°C° 0 mm 3 mps 743 mmHg 89%
    02:00 +11°C° 0.1 mm 3 mps 743 mmHg 90%
    03:00 +11°C° 0.1 mm 3 mps 743 mmHg 91%
    04:00 +11°C° 0.1 mm 3 mps 743 mmHg 91%
    05:00 +12°C° 0.1 mm 4 mps 743 mmHg 88%
    06:00 +13°C° 0.1 mm 5 mps 743 mmHg 84%
    07:00 +14°C° 0.1 mm 6 mps 743 mmHg 80%
    08:00 +15°C° 0.1 mm 6 mps 743 mmHg 74%
    09:00 +16°C° 0.1 mm 7 mps 743 mmHg 68%
    10:00 +17°C° 0.1 mm 7 mps 743 mmHg 62%
    11:00 +17°C° 0.1 mm 7 mps 743 mmHg 59%
    12:00 +18°C° 0.1 mm 7 mps 743 mmHg 56%
    13:00 +20°C° 0.1 mm 7 mps 743 mmHg 54%
    14:00 +19°C° 0.1 mm 6 mps 743 mmHg 55%
    15:00 +19°C° 0.1 mm 6 mps 743 mmHg 56%
    16:00 +19°C° 0.1 mm 6 mps 743 mmHg 57%
    17:00 +17°C° 0.1 mm 5 mps 743 mmHg 64%
    18:00 +17°C° 0.1 mm 4 mps 743 mmHg 70%
    19:00 +14°C° 0.1 mm 3 mps 743 mmHg 76%
    20:00 +13°C° 0.1 mm 3 mps 743 mmHg 81%
    21:00 +12°C° 0.1 mm 3 mps 743 mmHg 85%
    22:00 +11°C° 0.1 mm 3 mps 744 mmHg 89%
    23:00 +11°C° 0 mm 3 mps 744 mmHg 89%

    27 May, Saturday

    Time Temperature Precipitation Wind Pressure Humidity
    00:00 +10°C° 0 mm 3 mps 744 mmHg 90%
    01:00 +10°C° 0 mm 4 mps 744 mmHg 91%
    02:00 +10°C° 0 mm 4 mps 744 mmHg 91%
    03:00 +8°C° 0 mm 4 mps 744 mmHg 91%
    04:00 +8°C° 0 mm 4 mps 744 mmHg 91%
    05:00 +10°C° 0 mm 4 mps 744 mmHg 86%
    06:00 +10°C° 0 mm 5 mps 744 mmHg 81%
    07:00 +13°C° 0 mm 5 mps 744 mmHg 76%
    08:00 +14°C° 0 mm 5 mps 744 mmHg 70%
    09:00 +15°C° 0 mm 6 mps 744 mmHg 65%
    10:00 +16°C° 0 mm 6 mps 745 mmHg 59%
    11:00 +17°C° 0.1 mm 6 mps 745 mmHg 60%
    12:00 +17°C° 0.1 mm 6 mps 745 mmHg 61%
    13:00 +19°C° 0.1 mm 6 mps 745 mmHg 62%
    14:00 +19°C° 0.2 mm 6 mps 745 mmHg 64%
    15:00 +19°C° 0.2 mm 6 mps 745 mmHg 65%
    16:00 +19°C° 0.2 mm 5 mps 745 mmHg 67%
    17:00 +17°C° 0.1 mm 5 mps 745 mmHg 72%
    18:00 +17°C° 0.1 mm 4 mps 745 mmHg 77%
    19:00 +16°C° 0.1 mm 3 mps 745 mmHg 82%
    20:00 +14°C° 0 mm 3 mps 746 mmHg 84%
    21:00 +13°C° 0 mm 3 mps 746 mmHg 87%
    22:00 +11°C° 0 mm 3 mps 747 mmHg 90%
    23:00 +11°C° 0 mm 3 mps 747 mmHg 91%

    28 May, Sunday

    Time Temperature Precipitation Wind Pressure Humidity
    00:00 +11°C° 0 mm 3 mps 747 mmHg 91%
    01:00 +10°C° 0 mm 3 mps 747 mmHg 92%
    02:00 +10°C° 0 mm 3 mps 747 mmHg 92%
    03:00 +10°C° 0 mm 3 mps 747 mmHg 92%
    04:00 +9°C° 0 mm 2 mps 747 mmHg 92%
    05:00 +11°C° 0 mm 3 mps 748 mmHg 87%
    06:00 +13°C° 0 mm 3 mps 748 mmHg 82%
    07:00 +14°C° 0 mm 3 mps 748 mmHg 77%
    08:00 +17°C° 0 mm 3 mps 748 mmHg 72%
    09:00 +19°C° 0 mm 3 mps 748 mmHg 67%
    10:00 +21°C° 0 mm 3 mps 749 mmHg 61%
    11:00 +21°C° 0 mm 3 mps 748 mmHg 59%
    12:00 +22°C° 0 mm 3 mps 748 mmHg 57%
    13:00 +24°C° 0 mm 3 mps 748 mmHg 55%
    14:00 +24°C° 0 mm 3 mps 748 mmHg 56%
    15:00 +23°C° 0 mm 4 mps 748 mmHg 57%
    16:00 +23°C° 0 mm 4 mps 748 mmHg 58%
    17:00 +22°C° 0 mm 3 mps 748 mmHg 65%
    18:00 +20°C° 0 mm 3 mps 748 mmHg 73%
    19:00 +19°C° 0 mm 2 mps 748 mmHg 80%
    20:00 +17°C° 0 mm 2 mps 748 mmHg 84%
    21:00 +15°C° 0 mm 2 mps 748 mmHg 88%
    22:00 +13°C° 0 mm 2 mps 749 mmHg 91%
    23:00 +13°C° 0 mm 1 mps 749 mmHg 91%
    Show more